FW6396 Weather Reports


time (UTC)temp
C
wind
direction
speed
KPH
gust
KPH
rain 1hr
cm
rain 24hr
cm
rain mn
cm
humidity
%
barometer
mb
20260508031556 9 0 0.0 0.0 0.00 0.00 0.00 76 1011.1
20260508030054 9 0 0.0 0.0 0.00 0.00 0.00 76 1011.1
20260508024554 9 0 0.0 0.0 0.00 0.00 0.00 77 1011.2
20260508023052 9 0 0.0 0.0 0.00 0.00 0.00 77 1011.0
20260508021554 9 0 0.0 0.0 0.00 0.00 0.00 77 1011.0
20260508014551 9 0 0.0 0.0 0.00 0.00 0.00 79 1010.8
20260508013050 9 0 0.0 0.0 0.00 0.00 0.00 81 1010.8
20260508011548 9 0 0.0 0.0 0.00 0.00 0.00 81 1010.7
20260508010054 10 0 0.0 0.0 0.00 0.00 0.00 80 1010.8
20260508004552 10 0 0.0 0.0 0.00 0.00 0.00 78 1010.9
20260508003048 10 0 0.0 0.0 0.00 0.00 0.00 78 1010.7
20260508001552 10 0 0.0 0.0 0.00 0.00 0.00 78 1010.8
20260508000051 10 0 0.0 0.0 0.00 0.00 0.00 77 1010.7
20260507234549 10 0 0.0 0.0 0.00 0.00 0.00 76 1010.6
20260507233053 10 0 0.0 0.0 0.00 0.00 0.00 76 1010.6
20260507231555 10 0 0.0 0.0 0.00 0.00 0.00 75 1010.6
20260507230056 9 0 0.0 0.0 0.00 0.00 0.00 76 1010.5
20260507224552 9 0 0.0 0.0 0.00 0.00 0.00 76 1010.6
20260507223050 9 0 0.0 0.0 0.00 0.00 0.00 76 1010.6
20260507221554 9 0 0.0 0.0 0.00 0.00 0.00 76 1010.7
20260507220055 10 0 0.0 0.0 0.00 0.00 0.00 75 1010.8
20260507214604 10 0 0.0 0.0 0.00 0.00 0.00 75 1010.7
20260507213056 10 0 0.0 0.0 0.00 0.00 0.00 75 1010.8
20260507211551 10 0 0.0 0.0 0.00 0.00 0.00 75 1010.7
20260507210105 10 0 0.0 0.0 0.00 0.00 0.00 74 1010.7
20260507204557 11 0 0.0 0.0 0.00 0.00 0.00 73 1010.6
20260507203105 11 0 0.0 0.0 0.00 0.00 0.00 70 1010.4
20260507201557 11 0 0.0 0.0 0.00 0.00 0.00 69 1010.4
20260507200107 11 0 0.0 0.0 0.00 0.00 0.00 68 1010.5
20260507194556 12 0 0.0 0.0 0.00 0.00 0.00 66 1010.2
20260507193058 12 0 0.0 0.0 0.00 0.00 0.00 63 1010.1
20260507191551 13 0 0.0 0.0 0.00 0.00 0.00 62 1010.0
20260507190105 13 0 0.0 0.0 0.00 0.00 0.00 60 1010.0
20260507184603 13 0 0.0 0.0 0.00 0.00 0.00 58 1009.8
20260507183101 13 0 0.0 0.0 0.00 0.00 0.00 56 1009.7
20260507181554 14 0 0.0 0.0 0.00 0.00 0.00 55 1009.7
20260507180050 15 0 0.0 0.0 0.00 0.00 0.00 53 1009.6
20260507174553 15 0 0.0 0.0 0.00 0.00 0.00 53 1009.5
20260507173054 15 0 0.0 0.0 0.00 0.00 0.00 54 1009.4
20260507171551 15 0 0.0 0.0 0.00 0.00 0.00 54 1009.5
20260507170100 15 0 0.0 0.0 0.00 0.00 0.00 56 1009.6
20260507164558 14 0 0.0 0.0 0.00 0.00 0.00 58 1009.6
20260507163047 13 0 0.0 0.0 0.00 0.00 0.00 62 1009.8
20260507161551 12 0 0.0 0.0 0.00 0.00 0.00 69 1009.8
20260507160055 12 0 0.0 0.0 0.00 0.00 0.00 70 1009.9
20260507154555 13 0 0.0 0.0 0.00 0.00 0.00 67 1010.0
20260507153048 13 0 0.0 0.0 0.00 0.00 0.00 70 1010.0
20260507151550 13 0 0.0 0.0 0.00 0.00 0.00 73 1010.1
20260507150048 12 0 0.0 0.0 0.00 0.00 0.00 76 1010.1
20260507144553 12 0 0.0 0.0 0.00 0.00 0.00 75 1010.3
20260507143059 13 0 0.0 1.6 0.00 0.00 0.00 63 1010.4
20260507141553 13 0 0.0 0.0 0.00 0.00 0.00 63 1010.2
20260507140049 13 0 0.0 1.6 0.00 0.00 0.00 64 1010.3
20260507134552 13 0 0.0 6.4 0.00 0.00 0.00 62 1010.3
20260507133120 12 0 0.0 1.6 0.00 0.00 0.00 65 1010.6
20260507131554 12 0 0.0 0.0 0.00 0.00 0.00 64 1010.8
20260507130107 13 0 0.0 11.3 0.00 0.00 0.00 62 1010.6
20260507124552 13 0 0.0 1.6 0.00 0.00 0.00 63 1010.7
20260507123054 13 0 0.0 1.6 0.00 0.00 0.00 60 1010.8
20260507121606 13 0 0.0 14.5 0.00 0.00 0.00 61 1010.9
20260507120059 13 0 0.0 0.0 0.00 0.00 0.00 61 1011.0
20260507114635 13 0 0.0 9.7 0.00 0.00 0.00 60 1011.0
20260507113051 13 0 0.0 4.8 0.00 0.00 0.00 61 1011.0
20260507111558 13 0 0.0 3.2 0.00 0.00 0.00 60 1011.0
20260507110050 13 0 0.0 1.6 0.00 0.00 0.00 61 1011.0
20260507104554 13 0 0.0 0.0 0.00 0.00 0.00 61 1011.2
20260507103053 13 0 0.0 0.0 0.00 0.00 0.00 61 1011.2
20260507101550 13 0 0.0 0.0 0.00 0.00 0.00 60 1011.2
20260507100057 13 0 0.0 0.0 0.00 0.00 0.00 59 1011.1
20260507094550 13 0 0.0 0.0 0.00 0.00 0.00 60 1011.3
20260507093052 12 0 0.0 6.4 0.00 0.00 0.00 62 1011.3
20260507091554 11 0 0.0 0.0 0.00 0.00 0.00 64 1011.4
20260507090054 11 0 0.0 1.6 0.00 0.00 0.00 64 1011.4
20260507084558 11 0 0.0 0.0 0.00 0.00 0.00 65 1011.6
20260507083054 10 0 0.0 1.6 0.00 0.00 0.00 66 1011.6
20260507081554 10 0 0.0 0.0 0.00 0.00 0.00 67 1011.6
20260507080117 10 0 0.0 0.0 0.00 0.00 0.00 68 1011.6
20260507074555 10 0 0.0 0.0 0.00 0.00 0.00 68 1011.9
20260507073052 10 0 0.0 0.0 0.00 0.00 0.00 68 1011.9
20260507071550 9 0 0.0 0.0 0.00 0.00 0.00 69 1011.8
20260507070048 9 0 0.0 0.0 0.00 0.00 0.00 68 1011.8
20260507064552 8 0 0.0 0.0 0.00 0.00 0.00 70 1011.7
20260507063057 8 0 0.0 0.0 0.00 0.00 0.00 72 1012.0
20260507061546 8 0 0.0 0.0 0.00 0.00 0.00 70 1011.9
20260507060051 8 0 0.0 1.6 0.00 0.00 0.00 71 1012.1
20260507054552 8 0 0.0 0.0 0.00 0.00 0.00 71 1012.0
20260507053053 7 0 0.0 0.0 0.00 0.00 0.00 71 1012.0
20260507051552 7 0 0.0 1.6 0.00 0.00 0.00 71 1012.0
20260507050056 7 0 0.0 0.0 0.00 0.00 0.00 72 1012.3
20260507044553 7 0 0.0 0.0 0.00 0.00 0.00 72 1012.4
20260507043050 7 0 0.0 0.0 0.00 0.00 0.00 71 1012.5
20260507041553 7 0 0.0 0.0 0.00 0.00 0.00 72 1012.4
20260507040056 7 0 0.0 0.0 0.00 0.00 0.00 72 1012.5
20260507034555 7 0 0.0 0.0 0.00 0.00 0.00 73 1012.5
20260507033055 7 0 0.0 0.0 0.00 0.00 0.00 72 1012.8